Theta_e
323 324 324 324 325 326 328 328 329 326 326 326 326 325 324 321 321 320 318 317 316 313 312 312 310 311 312 312 311 309 309 311 311 315 319 309 300 299 299 298 298 298 299 300 299 300 299 296 301 305 305 306 306 307 307 307 307 307 308 308 308 308 308 308 308 308 308 308 308 308 308 308 308 308 308 308 309 308 308 309 309 309 309 309 309 310 310 309 309 311 311 311 312 312 312 312 311
323 324 324 325 325 327 329 329 328 325 326 326 325 324 323 320 319 319 318 317 315 313 311 310 310 310 310 309 308 308 306 306 307 307 307 303 301 301 299 298 298 299 299 299 298 299 299 295 299 304 304 305 306 307 306 306 307 306 307 307 308 307 308 308 307 307 307 307 307 307 307 307 307 307 307 307 307 308 307 308 308 308 308 308 309 309 309 308 308 309 309 308 309 310 310 310 309
324 324 325 326 326 327 329 329 327 325 327 327 325 322 322 321 319 318 316 315 313 312 311 310 310 308 309 309 308 308 305 303 304 304 302 300 301 300 299 299 299 299 299 299 298 299 299 296 299 302 303 304 305 306 306 306 306 306 306 307 307 306 307 307 306 306 306 306 307 306 306 306 306 306 306 306 306 307 306 307 307 307 308 307 307 308 307 307 307 307 307 307 307 308 308 308 307
324 325 325 326 327 328 328 328 326 325 328 327 325 322 321 320 318 317 315 314 313 313 312 311 310 307 308 307 306 306 303 301 302 302 301 299 300 299 299 299 298 299 298 298 298 299 299 296 298 302 302 303 304 306 306 306 306 306 306 306 306 306 306 306 305 306 305 305 306 305 305 305 305 305 305 305 305 305 305 305 306 306 307 306 306 306 306 306 306 306 306 306 306 306 306 306 306
324 325 324 325 329 328 326 325 324 326 327 325 324 321 319 319 317 315 314 313 312 313 312 311 310 307 306 304 304 305 302 301 301 301 301 300 300 299 299 298 298 299 298 298 298 299 300 297 297 300 301 302 304 305 305 305 305 305 305 306 305 305 305 305 305 305 305 305 305 305 304 305 304 304 304 304 304 304 304 304 304 304 305 305 304 305 305 305 305 304 304 305 305 305 305 305 305
323 324 323 324 326 326 324 323 323 324 323 322 322 320 318 318 316 314 314 313 312 312 312 312 311 307 305 302 302 304 302 303 302 301 301 300 300 299 299 298 298 298 298 298 299 299 299 297 296 299 300 301 302 303 304 304 304 305 305 305 305 305 304 304 304 304 304 304 304 304 304 304 303 303 303 303 303 303 302 303 303 303 303 303 303 304 304 304 303 303 303 303 304 304 304 304 304
323 326 326 324 323 323 322 321 322 321 320 319 320 318 317 316 315 315 314 313 312 312 311 311 311 308 306 303 302 301 301 302 302 300 300 300 300 299 299 298 298 299 298 298 299 299 299 298 295 297 299 300 301 302 303 303 303 303 304 304 304 304 303 303 303 303 303 303 303 303 303 303 302 303 302 302 302 302 302 301 302 302 302 302 302 302 302 302 302 302 303 303 303 303 303 303 303
324 326 325 324 322 322 321 320 320 319 318 317 317 317 316 315 315 315 314 314 312 312 310 310 310 309 307 304 302 301 300 300 300 299 299 299 299 299 299 298 299 299 299 299 299 299 299 299 297 296 297 299 300 300 301 302 302 302 302 303 303 303 302 302 302 302 302 302 302 302 302 302 302 302 302 301 301 301 301 300 300 300 301 301 301 301 301 301 301 301 301 302 302 302 302 302 302
324 325 324 323 322 321 321 320 319 318 317 316 316 316 315 315 315 315 314 313 312 311 309 309 309 307 305 303 302 301 300 300 300 299 298 298 298 299 299 299 299 299 299 298 298 299 299 299 298 297 297 298 299 299 299 300 300 301 301 302 302 302 301 301 301 301 301 301 300 301 301 301 301 301 301 300 300 299 300 299 298 299 299 300 300 300 300 300 300 299 300 301 301 301 301 301 301
324 324 325 323 322 322 321 320 319 318 316 316 315 315 315 314 314 314 313 312 312 311 309 308 308 306 304 302 302 301 300 300 300 299 298 298 299 299 299 299 299 298 298 298 298 298 298 298 298 298 297 298 298 299 299 299 299 299 300 301 301 301 300 300 300 300 300 300 299 300 300 300 300 300 300 299 298 298 299 298 296 296 298 298 299 299 299 299 299 299 299 300 299 300 300 300 300
324 325 326 323 321 321 321 320 318 317 315 315 315 314 314 314 314 313 312 312 311 310 308 308 307 305 303 301 301 300 299 299 299 299 298 299 299 299 299 299 299 298 298 298 298 298 298 298 298 298 298 298 299 299 299 299 299 299 300 300 300 300 299 299 299 299 299 299 299 299 300 300 300 299 299 298 297 296 298 297 295 295 297 298 298 298 298 298 298 298 299 299 298 299 299 299 298
325 325 325 322 321 321 320 319 318 317 316 315 314 314 313 313 313 312 312 311 310 309 306 306 306 306 304 300 300 299 299 299 299 299 299 299 299 299 299 299 298 298 298 298 298 298 298 298 298 298 298 299 299 299 299 298 298 298 299 299 299 299 298 298 298 298 299 299 299 299 300 300 299 298 298 298 296 294 296 296 294 295 297 297 297 297 298 297 297 297 298 298 298 298 297 296 295
325 322 321 321 321 320 319 318 318 318 317 315 314 313 313 313 312 311 311 310 309 307 305 304 306 306 303 300 300 299 299 298 299 299 299 299 299 299 299 299 299 299 298 298 298 298 298 298 298 298 298 298 298 298 298 299 299 298 298 299 298 298 298 297 298 298 298 299 297 298 299 299 298 295 296 297 294 293 295 294 293 294 296 296 296 296 297 296 296 297 297 297 297 297 296 295 293
324 322 320 320 320 318 318 319 319 318 316 314 314 312 311 311 310 310 309 310 308 306 305 304 305 306 302 301 300 299 299 299 299 299 299 300 300 300 299 299 299 299 298 298 298 298 298 298 298 298 298 298 297 298 298 299 299 298 298 298 298 298 298 298 298 298 298 298 296 297 298 298 296 293 296 295 292 292 293 292 292 293 295 295 295 295 296 295 295 296 296 295 296 296 294 294 293
323 322 321 320 320 320 319 320 317 317 315 313 313 312 311 308 307 307 305 307 307 306 306 303 304 304 301 301 300 299 299 299 299 299 300 300 300 300 300 300 299 299 299 298 298 298 298 298 298 298 298 298 297 298 298 298 298 298 298 299 299 298 298 298 299 298 298 297 295 295 295 295 294 291 294 293 290 291 291 291 291 292 293 294 294 294 295 294 294 295 295 295 295 294 293 293 293
323 322 321 321 321 321 319 318 316 316 315 313 312 311 309 305 304 305 303 304 304 303 303 302 302 303 300 300 300 299 299 299 299 299 300 300 300 300 300 300 299 299 299 299 298 298 298 298 298 298 298 297 297 298 298 298 298 298 298 298 299 299 298 298 298 297 297 296 293 293 293 292 291 290 291 290 289 290 290 291 291 292 292 292 293 293 293 293 293 294 294 294 294 293 292 291 291
323 322 320 320 320 319 318 317 316 316 314 312 311 309 306 303 302 302 302 301 300 299 300 300 301 301 300 300 299 299 299 299 299 299 300 300 300 300 300 300 299 299 299 299 298 298 298 298 298 297 298 297 297 297 297 298 297 297 298 298 297 298 297 297 297 296 295 295 292 290 289 289 290 289 289 288 288 289 289 290 290 291 291 291 291 292 292 292 292 293 293 293 292 292 290 289 289
322 321 319 319 318 317 316 315 315 314 313 311 310 309 305 303 302 301 301 300 300 299 299 300 301 300 299 299 299 299 300 299 299 300 300 300 300 300 299 299 299 299 298 298 298 298 298 298 297 297 297 298 298 297 297 298 297 297 298 297 297 297 296 296 296 295 294 294 291 288 287 287 288 288 288 288 288 288 289 289 290 290 290 290 290 290 290 290 291 291 291 291 290 290 288 287 287
318 318 317 317 316 315 314 313 313 312 312 311 309 308 305 303 302 301 300 300 300 301 301 301 300 300 299 299 299 299 299 299 300 300 300 300 300 300 299 299 299 299 299 298 299 298 298 297 297 297 297 298 298 297 297 298 297 297 297 297 296 296 296 296 295 295 294 292 290 287 286 287 287 288 288 288 288 288 288 288 288 288 288 288 288 288 288 288 289 289 289 289 288 287 287 287 287
314 315 316 316 314 313 312 312 312 312 310 308 306 306 304 303 302 301 301 300 301 301 301 301 300 300 300 300 299 299 300 300 300 300 300 300 300 300 299 299 299 299 299 299 299 298 298 298 297 297 297 297 297 297 297 297 297 297 297 296 296 296 295 295 294 294 293 291 289 286 286 287 287 287 287 286 287 287 287 286 287 287 286 286 287 286 286 286 287 287 287 287 286 286 286 287 287
313 313 314 313 312 311 310 310 310 310 308 306 306 305 303 303 302 302 302 302 302 301 301 301 300 300 300 300 299 299 300 300 300 300 300 300 300 300 299 299 299 299 299 299 298 298 298 297 297 297 297 297 297 297 297 297 297 297 297 296 296 296 295 295 294 293 291 290 288 285 286 287 286 287 286 286 286 286 286 286 286 286 285 285 285 285 285 285 285 286 286 286 285 286 286 286 287
312 312 312 311 310 309 308 308 308 307 307 306 305 303 302 302 302 302 302 302 301 301 300 300 300 300 300 299 299 299 300 300 300 300 300 300 300 299 299 299 299 299 299 299 298 298 298 297 297 297 297 297 297 297 297 297 297 297 296 296 296 295 294 294 293 291 290 288 287 285 286 287 286 286 286 285 286 286 286 285 285 285 285 285 285 285 285 284 285 285 285 285 284 285 285 286 286
311 310 309 309 308 308 307 306 307 307 306 305 304 303 302 302 302 302 301 301 300 300 300 300 300 300 299 299 299 299 299 300 300 300 299 300 299 299 299 299 299 298 299 298 298 298 298 297 297 297 297 297 297 297 297 297 297 297 296 296 296 295 294 293 292 290 288 288 286 285 287 286 285 286 285 285 286 286 286 285 285 285 284 284 284 284 284 284 284 285 284 283 283 284 284 285 286
309 308 307 307 307 307 306 306 306 305 304 304 303 303 302 302 302 301 301 300 300 300 300 300 300 299 299 299 299 300 299 300 300 300 299 299 299 299 299 299 299 298 298 298 298 298 297 297 297 297 297 297 297 297 297 297 296 296 296 295 295 294 293 292 290 289 287 287 286 285 286 285 285 285 285 285 285 286 285 284 284 284 284 284 283 284 283 283 284 284 284 283 283 283 284 284 285
307 307 306 306 306 305 305 305 304 303 303 303 303 302 302 301 301 300 301 300 300 300 299 299 299 299 299 299 299 299 299 300 300 300 300 299 299 299 299 299 299 299 299 298 298 298 297 297 297 297 297 296 296 297 297 297 296 296 295 295 294 293 292 291 288 287 286 287 286 285 285 285 285 285 284 284 285 285 285 284 284 284 283 283 283 283 283 283 284 284 283 283 283 283 283 284 284
307 306 306 305 305 305 304 304 303 303 302 302 302 302 302 301 301 301 301 301 300 300 300 299 299 299 299 299 300 300 300 300 300 300 300 300 299 299 299 299 299 299 299 299 298 298 297 297 297 297 297 296 296 296 296 296 296 295 295 294 293 292 291 289 287 287 286 286 286 284 285 284 284 284 283 283 284 285 284 284 284 283 283 282 283 283 283 283 283 283 283 283 283 283 283 284 284
306 306 306 305 305 304 304 303 303 303 302 302 303 303 302 301 301 302 302 301 300 300 300 300 299 300 300 300 300 300 300 300 300 300 300 300 300 300 299 299 299 299 299 299 298 297 297 297 297 297 297 296 295 295 295 296 295 295 294 293 292 291 290 288 286 286 286 286 286 284 283 284 283 282 282 283 284 284 284 283 283 283 282 282 283 283 283 283 283 283 282 282 283 283 283 284 284
306 305 305 304 304 304 304 303 303 303 302 302 302 302 303 302 302 303 301 300 300 300 300 301 300 300 301 301 301 301 301 301 300 300 300 300 300 300 299 299 299 299 299 298 298 298 297 297 297 297 297 296 295 295 295 295 294 294 293 292 291 290 288 287 286 286 286 285 285 284 283 284 283 282 282 282 283 284 283 283 283 283 282 282 283 283 283 283 282 282 282 282 282 283 283 283 284
305 305 304 304 304 304 304 303 303 304 303 302 301 303 303 303 303 303 302 301 300 300 301 301 301 301 301 301 301 301 301 301 301 300 300 300 300 300 299 299 299 299 298 298 298 298 297 297 296 297 297 296 295 295 294 294 294 293 293 291 290 289 287 287 286 286 286 285 285 284 282 283 282 281 282 282 282 283 283 283 283 282 282 282 283 283 283 282 282 282 281 282 282 282 283 283 283
306 305 304 305 305 304 304 303 303 303 303 301 302 306 306 303 304 302 301 301 300 301 301 301 302 301 302 302 301 301 301 301 301 301 300 300 300 300 299 299 299 299 298 298 298 297 297 297 297 297 296 296 296 295 294 294 293 293 292 290 289 288 287 286 286 286 285 284 284 283 282 283 282 281 282 282 282 283 283 283 282 282 281 282 283 283 282 281 281 281 281 281 281 282 282 282 283
306 305 306 308 309 306 303 303 303 303 303 301 303 308 306 304 304 302 301 302 301 301 301 301 302 302 302 303 303 302 301 301 301 301 301 300 300 300 299 299 299 298 298 298 298 297 297 297 297 297 296 296 296 295 294 293 293 292 291 289 289 288 287 286 286 285 285 283 283 282 281 282 282 281 282 281 282 282 282 282 282 281 281 281 283 283 282 281 281 281 280 281 281 281 282 282 282
305 308 310 311 311 307 303 303 303 303 303 302 303 307 306 304 303 302 302 302 301 301 302 302 302 302 302 302 302 302 302 302 301 301 301 301 300 300 299 299 299 298 298 298 298 298 297 297 297 297 296 295 295 295 294 293 292 291 290 289 288 288 287 286 285 285 285 283 282 281 281 282 282 281 281 281 282 282 282 282 281 281 281 281 282 282 281 280 280 280 280 280 281 281 281 282 282
307 310 312 312 309 307 305 303 303 303 304 303 303 305 305 304 303 302 302 302 301 301 301 302 302 302 302 302 302 302 302 302 302 301 301 301 300 300 299 299 299 298 298 298 298 298 297 298 297 296 295 295 295 294 293 292 292 290 289 289 288 288 287 286 285 284 284 282 281 281 281 281 281 281 281 281 281 281 281 281 281 280 280 281 282 281 280 280 280 280 280 280 280 281 281 282 282
309 310 310 308 306 307 307 304 303 304 304 304 304 304 305 305 304 302 302 302 301 301 302 302 303 303 303 303 303 302 302 302 302 301 301 300 300 300 299 298 298 298 298 297 297 297 297 298 297 296 295 295 294 294 293 292 291 290 289 289 288 288 287 286 285 284 283 282 281 281 281 281 281 281 280 280 281 281 281 281 280 280 280 281 282 281 280 280 280 279 279 280 280 280 281 282 281
310 310 309 307 305 306 307 305 304 303 303 304 304 305 305 306 304 302 302 302 302 302 302 303 303 303 303 303 303 303 303 303 302 301 300 300 300 299 299 298 298 298 297 297 297 297 297 297 297 296 295 295 294 293 292 292 291 290 289 288 288 287 286 286 285 283 282 282 281 280 281 281 280 281 280 280 280 280 280 280 280 280 280 280 281 281 280 280 279 279 279 279 280 280 281 281 281
309 310 308 308 307 306 306 305 303 303 304 305 306 306 306 306 306 304 302 302 303 302 303 303 303 303 303 303 304 304 304 303 302 302 301 300 299 299 299 298 298 298 297 297 297 297 298 297 297 296 295 294 293 293 292 291 291 289 288 288 287 287 286 285 285 283 282 282 281 280 281 280 280 280 280 280 280 280 280 280 280 280 279 280 281 280 279 279 279 279 279 279 279 280 280 280 280
308 309 308 309 309 306 305 305 303 303 304 306 307 306 306 307 307 306 303 302 303 303 303 304 304 304 304 304 304 305 304 303 302 302 300 299 299 299 298 298 298 298 298 297 297 297 297 297 296 295 294 294 293 292 292 291 290 288 288 287 286 287 286 285 284 283 282 282 282 281 280 280 280 280 279 279 280 280 280 279 279 279 279 280 280 280 279 279 279 278 278 279 279 279 279 280 280
307 309 308 309 310 307 305 304 303 303 304 307 306 306 307 306 307 305 303 303 304 304 304 304 304 305 305 305 306 305 304 303 302 301 300 300 299 298 298 298 298 298 298 297 297 298 297 296 296 295 294 293 293 292 292 291 289 288 287 287 286 286 286 285 284 283 283 282 282 281 280 280 280 280 279 279 279 279 279 279 279 279 279 279 280 279 279 279 278 278 278 278 279 279 279 279 280
310 311 310 310 310 308 305 304 304 303 305 307 306 305 307 305 305 305 304 304 305 306 305 306 306 305 304 305 306 305 304 304 302 300 300 300 300 299 298 298 298 298 298 297 298 297 297 296 295 295 293 293 292 292 292 291 289 287 287 287 287 287 286 285 284 283 283 282 282 281 281 280 280 279 279 279 279 279 279 279 278 279 278 279 279 279 278 278 278 278 278 278 278 279 279 279 279
312 313 312 310 309 308 306 304 305 304 305 306 305 306 307 305 305 305 304 304 306 306 305 305 306 305 305 306 305 304 303 304 303 301 300 300 300 299 299 299 299 299 298 298 298 297 297 296 295 294 293 292 292 292 292 291 289 287 286 287 287 287 286 285 283 283 282 282 281 281 281 280 280 279 279 279 279 279 279 278 278 278 278 279 279 278 278 278 278 278 278 278 278 278 278 279 279
312 312 311 309 307 306 305 305 305 306 306 305 305 308 309 307 306 306 304 304 304 304 304 304 306 306 306 306 306 304 303 303 303 301 300 300 300 300 300 300 299 299 298 298 298 297 297 296 295 293 292 292 292 292 291 290 288 287 286 286 286 286 286 285 283 282 282 282 281 281 281 281 280 279 279 279 279 278 278 278 278 278 278 278 279 278 278 278 277 278 278 278 278 278 278 278 278
312 309 308 307 305 305 306 308 307 308 309 307 306 311 312 308 307 307 306 305 305 304 305 304 305 306 306 306 306 305 304 302 301 301 301 300 300 300 300 299 299 299 298 298 298 297 296 296 294 293 292 292 292 292 291 290 287 286 285 286 286 285 285 284 283 282 282 281 281 281 281 281 280 280 279 279 279 279 278 278 278 278 278 278 279 278 277 277 277 277 277 278 278 278 278 278 278
313 307 306 306 305 307 309 309 309 310 310 308 307 311 313 310 307 306 306 306 306 306 306 306 306 306 306 305 306 305 304 303 302 301 300 300 300 300 300 299 299 299 298 299 298 297 296 295 294 293 292 292 292 292 291 290 287 285 285 285 286 285 283 283 283 282 282 281 281 281 281 281 280 280 279 279 279 278 278 278 278 278 277 278 278 278 277 277 277 277 277 278 278 278 278 278 278
314 307 305 306 306 308 309 309 310 311 309 309 309 308 310 311 309 307 306 306 307 307 306 307 306 306 305 305 304 304 304 304 304 302 300 300 300 300 300 299 299 299 299 298 297 296 295 295 293 292 292 292 292 291 291 290 287 285 284 284 285 284 283 283 282 282 282 281 281 281 281 281 280 280 279 279 279 278 278 278 278 278 277 278 278 277 277 277 277 277 277 278 278 278 278 278 278
310 305 305 306 305 307 307 309 311 310 310 312 310 308 311 313 310 306 306 307 307 306 306 306 306 306 305 304 304 304 304 303 302 301 300 300 300 300 299 299 299 299 298 297 296 296 295 294 293 292 291 292 292 291 291 290 287 285 284 283 283 283 282 282 282 282 281 280 280 281 281 281 280 280 279 279 279 278 278 278 278 277 277 277 277 277 277 277 277 277 277 277 278 278 277 277 278
306 303 305 305 306 307 307 308 309 310 313 313 309 307 311 314 310 307 307 307 307 306 305 305 305 306 306 305 305 304 304 304 301 300 300 300 300 300 299 299 299 298 297 297 296 296 295 294 293 292 291 291 291 291 290 290 287 285 283 283 282 282 281 281 281 282 281 280 280 281 280 280 280 280 279 279 279 278 278 278 277 277 277 277 277 277 277 277 277 277 277 277 278 278 278 277 277
304 304 307 308 308 307 307 307 308 313 317 312 306 305 308 312 312 309 308 307 306 306 305 304 305 305 306 306 305 303 303 304 302 300 300 300 300 300 299 298 298 298 297 296 296 295 295 293 292 291 291 291 291 291 290 289 286 284 283 282 282 281 281 280 280 281 280 279 280 280 280 280 280 280 279 279 278 278 278 278 277 277 277 277 277 277 277 276 277 277 277 277 278 278 278 277 277
305 307 310 313 313 309 308 309 310 317 319 311 305 303 306 313 313 308 307 305 305 306 305 305 305 305 307 306 304 303 302 302 302 300 300 300 300 300 299 298 298 298 297 296 296 295 294 293 292 291 290 290 291 290 290 288 286 284 283 282 282 281 281 280 280 281 280 279 280 280 279 280 279 279 279 278 278 278 278 278 277 277 277 277 277 277 276 276 277 277 277 277 278 278 278 277 277
308 310 310 316 319 313 313 315 315 318 316 308 304 304 308 314 312 306 305 305 305 305 305 305 305 305 306 306 305 304 303 302 302 301 301 301 300 300 299 299 299 298 297 296 296 295 294 293 292 291 290 290 291 290 290 289 286 284 283 282 281 281 281 280 280 280 279 278 279 279 279 279 279 279 278 278 278 278 278 278 277 277 277 277 277 276 276 276 277 277 277 278 278 278 277 277 277
310 310 310 316 319 314 315 316 314 316 315 307 302 306 312 313 310 306 305 305 305 305 305 306 305 304 305 306 305 304 303 303 303 301 300 301 301 301 300 299 299 299 298 297 297 296 295 294 292 291 290 290 290 290 289 288 286 284 283 282 281 281 280 280 280 280 279 278 278 279 279 278 278 278 278 278 278 278 278 278 278 277 277 277 277 277 276 276 276 277 277 278 278 278 277 277 277
309 306 308 313 313 312 317 318 317 319 318 311 305 308 314 312 310 308 305 305 305 304 304 305 304 304 304 305 304 304 304 304 304 301 300 301 301 301 301 300 300 300 299 298 297 296 295 294 293 292 291 290 290 290 289 288 286 284 283 282 282 281 280 280 279 279 278 278 278 278 278 278 278 278 278 278 278 278 278 278 278 278 277 277 277 277 276 276 276 277 277 277 277 277 277 277 277
309 306 310 313 309 309 315 316 315 315 316 316 313 314 315 310 307 306 304 304 303 303 304 304 304 304 304 305 304 305 304 305 305 303 301 301 300 300 300 300 300 300 299 298 297 296 295 294 293 292 291 291 290 290 289 288 285 284 283 282 281 281 280 280 279 279 278 278 278 278 278 278 278 278 278 278 278 278 278 278 278 278 277 277 277 276 276 276 276 277 277 277 277 277 277 277 277
311 310 311 308 303 306 314 314 309 309 315 318 315 314 312 309 308 305 303 304 304 303 304 304 305 306 306 306 306 306 307 308 307 304 301 301 301 300 300 300 300 299 299 298 298 296 295 294 293 292 291 290 290 290 289 288 286 284 282 282 281 281 280 280 279 278 278 278 278 278 278 278 278 278 278 278 278 278 278 278 278 278 277 277 277 276 276 276 276 276 277 277 277 277 276 277 277
310 312 308 305 304 306 311 314 313 314 318 317 312 311 311 311 312 307 304 305 305 305 305 304 305 307 307 308 309 308 309 308 306 302 300 301 300 300 300 299 299 299 298 298 298 297 296 294 293 292 291 291 291 290 290 288 286 284 282 282 281 281 280 280 279 278 278 278 278 278 278 278 278 278 278 278 278 278 278 278 277 277 277 277 277 276 276 276 276 276 277 277 277 276 276 277 277
305 307 304 306 312 314 314 314 315 316 318 318 317 314 313 314 313 309 307 308 306 306 306 305 305 307 307 309 309 308 308 307 305 302 301 300 300 300 300 299 299 299 298 298 298 297 295 294 293 292 291 291 291 290 290 289 287 284 283 282 282 281 281 280 279 278 278 277 278 278 278 278 278 278 278 278 278 278 278 278 277 277 277 277 276 276 276 276 276 276 276 276 276 276 276 277 277
303 305 304 306 310 312 313 312 312 315 317 320 323 320 316 315 314 312 310 309 308 308 307 306 306 307 307 307 307 308 308 308 307 304 301 300 300 299 299 299 299 298 297 298 297 296 295 294 292 291 291 290 291 290 290 289 287 285 283 282 282 281 281 280 279 278 278 277 278 278 279 278 278 278 278 277 277 278 278 278 277 277 277 276 276 276 276 275 275 276 276 276 276 276 277 277 277
307 309 308 308 307 307 309 310 308 311 315 317 319 322 320 313 311 311 310 309 310 309 309 309 309 307 306 306 306 307 307 307 307 304 301 300 300 299 299 299 298 297 296 297 296 295 294 293 292 291 291 291 291 290 290 289 287 285 283 282 282 281 281 280 279 278 278 278 278 278 279 278 278 278 278 277 277 277 277 277 277 277 276 276 276 276 275 275 275 275 275 276 276 276 277 277 277
307 309 308 309 308 309 314 314 307 307 312 313 313 319 322 315 309 310 309 309 311 310 309 310 309 307 306 307 307 307 307 307 306 302 300 300 300 299 298 298 297 296 296 296 295 294 293 292 292 291 291 291 291 290 290 289 287 285 283 282 282 282 281 280 279 278 278 278 278 278 278 278 278 278 278 277 277 277 277 277 277 277 276 276 276 275 275 275 275 275 275 276 276 276 277 277 278
Wind_Speed
4 2 1 3 7 9 8 5 2 4 4 7 6 5 6 8 7 7 6 4 4 5 5 5 6 6 6 6 8 8 6 5 3 2 1 1 2 2 5 6 6 8 9 11 12 8 13 21 20 20 20 21 21 21 20 20 19 20 20 21 21 21 21 22 22 22 22 22 22 22 22 21 21 22 22 22 23 22 22 24 22 22 21 21 22 23 23 22 23 24 24 23 23 24 25 24 22
2 3 7 9 11 8 2 1 2 4 5 6 5 5 5 7 8 8 8 6 5 4 4 4 4 6 8 10 9 7 7 6 4 3 3 3 3 1 3 5 7 7 7 10 11 7 13 19 19 18 19 20 20 19 19 19 19 19 20 20 21 21 21 21 21 22 21 21 21 21 21 21 21 21 22 22 22 22 21 23 22 22 22 21 21 21 22 22 22 23 23 21 22 24 24 23 20
1 5 10 11 10 5 1 1 2 5 5 5 5 5 5 6 7 8 8 8 6 3 2 2 4 4 3 8 3 4 5 4 5 4 4 3 3 3 3 5 8 7 5 8 9 7 11 18 18 17 18 19 19 18 18 18 18 18 19 20 20 20 21 21 22 22 21 21 21 20 21 20 21 21 22 22 21 21 21 22 22 22 22 22 22 21 21 21 21 22 22 20 21 21 22 21 19
2 3 10 10 3 3 3 3 4 5 5 4 4 4 6 6 7 8 7 7 4 1 1 3 3 5 5 5 3 4 6 5 5 3 5 5 4 4 4 6 8 6 6 8 9 6 10 18 17 16 18 18 18 17 18 18 18 18 18 19 20 20 20 21 21 22 22 21 21 20 20 20 20 21 21 21 21 21 21 21 21 22 22 21 22 21 21 21 21 21 20 20 20 20 20 19 18
4 3 6 8 1 4 3 3 4 6 5 3 4 4 6 7 7 7 6 6 3 1 3 3 2 3 8 7 4 2 3 4 6 7 6 7 5 4 5 7 8 6 7 9 8 6 10 17 17 16 18 18 18 17 17 18 18 18 18 19 19 20 20 21 21 22 22 21 21 20 20 20 20 20 21 21 21 21 21 20 20 20 20 20 20 20 20 20 20 20 20 19 19 19 19 19 19
5 5 12 10 4 3 3 5 6 7 6 5 5 5 6 8 8 8 7 6 6 4 4 5 4 5 6 5 6 5 4 2 5 8 7 6 4 5 6 7 7 7 9 9 8 8 11 15 16 16 17 17 17 17 18 18 18 18 18 19 19 19 20 21 21 22 22 22 21 20 20 20 20 20 20 21 21 21 21 20 20 20 19 19 19 19 19 20 20 20 20 19 19 19 19 19 19
5 2 8 9 5 4 5 7 6 6 6 6 5 6 7 7 5 6 6 5 5 5 5 4 3 6 4 2 6 7 7 7 5 6 6 4 4 5 6 7 8 8 9 9 9 11 11 13 16 16 16 16 17 17 18 18 19 19 19 19 19 20 20 21 21 22 22 22 21 20 20 20 20 20 20 21 22 22 21 21 20 20 19 19 19 19 19 19 20 20 20 20 19 20 19 19 19
2 2 2 5 5 4 6 7 6 5 6 7 7 7 7 6 2 3 5 4 4 5 6 4 1 4 4 3 4 4 8 9 6 5 5 4 5 5 6 7 8 9 9 9 10 10 11 13 16 16 16 15 15 17 18 19 19 19 19 19 19 20 20 21 22 22 22 22 22 21 20 20 20 20 20 21 22 22 21 21 21 21 20 19 19 18 19 19 20 20 20 20 20 20 20 20 19
2 2 3 6 5 5 6 6 6 6 6 7 8 7 7 5 3 4 7 6 5 6 7 6 4 3 6 8 6 5 8 6 5 6 5 4 5 6 7 7 8 9 9 10 9 10 12 13 15 16 17 15 14 15 17 18 19 19 19 18 18 19 20 21 21 22 22 23 22 22 20 19 19 19 19 20 22 22 21 22 22 22 21 20 19 19 18 18 19 20 20 20 20 21 20 20 20
1 2 3 5 5 7 6 5 5 5 7 7 7 7 6 4 4 6 7 7 6 6 7 8 5 6 7 8 4 4 6 4 4 5 6 5 5 6 8 7 8 8 9 10 9 9 12 13 13 15 18 15 12 14 15 17 19 19 18 17 17 18 19 20 21 22 22 22 23 22 21 19 19 19 19 20 22 22 21 22 23 22 22 21 20 19 19 18 18 19 19 20 21 21 21 21 20
2 1 2 4 4 6 5 5 5 5 7 6 7 7 5 4 5 6 6 7 6 7 8 7 4 6 6 7 2 5 6 5 6 5 5 6 5 6 8 6 7 7 8 9 8 9 10 11 13 14 17 15 13 14 16 16 19 21 18 16 17 17 19 19 20 21 21 22 24 23 21 19 19 19 18 19 22 23 21 21 23 22 22 21 20 20 20 19 19 19 19 19 20 21 21 21 21
3 2 3 5 4 5 5 6 6 6 7 6 6 5 4 4 5 6 6 6 5 8 9 7 4 5 3 6 3 8 8 7 6 5 5 6 6 5 7 7 6 6 8 9 8 9 10 10 11 12 13 14 14 15 17 18 19 22 19 16 17 18 19 20 20 21 22 22 24 23 21 19 18 21 19 18 23 24 21 20 22 22 21 21 21 21 21 20 19 19 19 19 19 20 20 20 20
3 5 5 5 5 6 6 6 6 6 5 4 6 4 4 5 7 6 5 6 7 7 6 6 5 6 4 6 4 8 8 7 5 6 5 6 6 4 6 6 4 4 7 8 7 9 10 10 10 10 12 14 16 15 16 18 20 23 21 17 19 20 21 22 20 21 21 21 24 23 21 18 18 22 18 17 23 24 21 20 22 22 21 21 21 21 21 20 19 20 20 19 20 20 20 20 19
3 4 4 6 5 6 6 5 5 5 4 4 5 5 5 6 6 6 5 7 9 6 3 6 7 4 3 4 3 5 7 7 6 6 5 6 6 4 5 6 2 2 8 8 7 9 9 10 11 10 12 15 17 16 16 17 19 22 21 20 21 22 22 21 19 19 20 21 25 23 21 18 18 23 18 17 24 23 21 21 22 22 21 21 21 21 20 19 20 20 20 20 21 20 20 19 18
4 4 4 6 5 5 4 4 6 5 4 5 5 4 6 6 5 5 7 6 7 4 1 6 7 3 3 4 2 5 6 7 5 5 6 6 6 5 4 5 1 3 8 6 7 9 9 9 11 11 11 15 17 16 16 16 19 21 21 20 20 20 20 20 18 19 19 20 25 22 20 19 19 22 17 19 24 22 21 21 22 22 21 21 21 22 20 19 20 20 20 20 21 20 20 19 17
3 3 4 5 5 5 3 4 6 5 4 5 5 4 7 6 5 4 4 3 5 4 3 5 6 3 5 6 5 6 6 6 6 6 6 6 8 4 2 7 6 7 8 6 8 9 9 9 11 11 11 16 17 16 16 16 17 19 17 17 18 16 18 19 18 19 18 21 25 22 20 19 20 21 17 21 24 21 21 21 22 21 21 21 21 22 20 19 20 20 19 20 21 20 20 19 17
1 3 5 5 6 5 3 3 3 5 6 6 5 4 6 5 4 3 1 2 5 5 5 4 6 6 7 7 6 6 4 5 7 7 8 9 9 9 8 9 8 9 9 7 8 9 9 9 11 12 12 15 16 16 16 15 16 16 14 16 17 15 17 19 18 19 19 22 26 23 22 20 20 20 18 22 23 21 20 20 21 20 20 20 21 22 19 20 21 20 19 20 20 19 19 19 18
1 3 6 6 5 5 5 6 5 7 8 7 5 2 6 5 4 2 2 4 6 5 5 4 7 8 8 8 5 4 3 5 8 8 9 9 9 10 10 9 9 10 9 7 7 9 10 10 11 13 13 14 15 16 15 15 16 15 13 16 17 15 18 18 18 19 19 22 26 25 24 20 19 19 19 21 22 20 20 20 20 20 20 20 21 21 19 20 21 20 20 20 20 19 19 19 19
5 4 6 6 5 6 7 8 8 8 8 7 4 3 6 4 3 2 2 5 5 5 5 4 6 5 7 6 4 4 3 4 6 7 8 8 8 8 9 9 9 9 8 7 7 8 10 10 11 13 13 13 14 16 15 14 16 15 14 16 16 16 18 17 18 19 19 21 24 26 24 20 19 19 19 21 20 20 20 20 20 19 20 20 21 21 20 21 21 20 20 20 20 20 20 20 20
6 5 6 6 6 8 9 10 10 9 8 8 5 4 6 4 2 1 1 4 4 4 4 4 6 5 6 6 5 3 2 4 5 5 7 7 7 6 6 6 7 7 7 8 8 8 11 11 12 12 11 12 14 15 14 13 14 14 14 16 15 16 17 16 18 18 18 20 23 26 23 20 19 18 20 20 19 20 20 21 21 21 22 22 22 22 23 23 21 21 21 21 22 21 21 20 20
5 6 7 7 7 9 9 10 10 8 8 7 6 4 6 3 1 1 1 2 1 4 4 3 5 5 4 5 5 2 2 4 4 5 6 6 6 6 6 6 6 7 7 8 9 9 11 12 13 12 11 13 14 14 14 13 13 13 15 16 14 16 17 16 18 18 18 19 23 25 20 19 19 17 20 21 19 20 21 22 22 22 23 23 24 24 24 24 23 23 23 23 23 22 21 20 20
6 8 10 8 7 8 9 8 7 7 6 6 5 5 4 2 1 2 4 2 2 3 5 5 5 4 4 3 4 1 0 3 4 5 5 4 5 6 6 6 7 7 6 7 10 9 11 12 12 12 11 13 13 14 13 12 13 13 15 15 13 17 18 17 18 17 18 18 22 24 19 19 19 17 20 20 19 19 21 22 22 22 22 23 23 24 24 24 23 23 24 25 24 22 21 20 20
7 9 9 9 8 9 8 6 4 5 5 5 5 3 3 1 2 2 3 3 3 3 5 5 5 4 3 1 1 2 1 3 3 4 4 2 2 3 4 5 5 5 5 7 9 8 11 11 10 11 10 13 13 13 12 12 13 12 15 15 13 18 17 16 17 16 17 17 21 22 18 20 19 18 20 19 19 18 20 21 21 22 22 22 22 22 23 23 23 23 25 25 25 23 22 21 20
10 10 9 10 10 9 7 4 5 6 6 6 2 2 1 2 2 1 0 5 4 4 5 5 4 2 1 2 3 4 2 1 0 2 1 0 1 1 1 2 4 4 5 8 8 7 10 9 9 10 10 13 13 12 12 12 13 12 15 14 12 18 16 15 15 15 16 15 20 21 17 19 18 17 19 19 18 17 19 20 20 21 21 22 21 21 23 24 23 23 25 26 26 25 24 22 21
10 10 8 8 9 8 6 5 6 6 5 3 1 2 3 2 2 2 2 6 5 5 5 4 3 2 3 4 5 4 3 3 3 2 2 2 1 2 2 1 4 5 7 8 7 7 9 8 8 10 10 13 12 11 12 11 12 12 15 14 13 18 15 14 15 15 16 14 19 20 16 18 17 17 19 18 18 17 19 20 20 21 21 22 21 21 23 24 23 23 25 26 26 25 25 23 23
7 10 9 8 8 7 6 5 5 4 3 1 2 3 3 2 1 3 4 6 5 5 5 5 4 4 5 6 7 5 3 2 2 2 2 3 3 4 1 1 3 6 7 6 6 7 8 7 8 8 9 12 12 10 12 11 12 12 14 13 14 17 14 14 15 14 15 13 18 20 16 17 18 17 19 18 18 18 19 20 20 21 21 22 20 21 23 24 23 23 25 26 25 25 25 23 23
8 11 10 9 8 6 5 5 4 3 3 3 3 1 3 4 1 3 4 6 6 5 5 5 5 5 5 6 6 4 3 3 2 2 2 3 5 3 1 4 4 6 6 4 5 6 5 6 7 7 8 11 11 10 11 10 11 12 12 12 14 15 12 13 14 13 14 13 16 20 17 16 18 18 18 18 17 17 18 19 19 20 22 21 19 20 22 22 22 22 24 24 24 24 24 22 22
11 11 10 9 7 6 4 5 2 1 2 3 4 3 1 4 1 2 6 6 6 5 5 5 6 5 5 5 4 4 4 4 3 4 3 4 2 1 2 3 3 5 5 3 5 5 3 6 6 5 8 10 12 12 11 10 11 12 11 12 14 13 12 13 14 13 13 13 14 19 17 15 18 19 18 18 16 16 17 18 18 19 21 20 19 19 21 21 21 22 22 22 22 22 22 21 20
11 9 9 7 6 6 3 3 2 2 1 2 2 2 2 4 3 4 8 6 5 4 4 4 5 5 5 4 3 4 5 4 4 5 5 4 1 1 1 2 3 3 3 3 4 4 3 6 5 4 7 9 11 12 12 11 10 11 10 12 14 13 12 12 13 13 12 13 13 17 17 14 18 19 18 18 16 16 17 17 18 18 20 19 18 19 20 20 20 22 22 21 21 21 21 21 20
7 5 6 6 4 4 2 2 0 2 1 1 1 2 1 6 5 7 7 6 6 4 4 5 5 5 5 3 3 4 5 5 5 6 6 4 3 1 1 2 2 1 2 2 2 3 2 5 5 4 8 8 10 12 13 11 10 10 10 13 15 14 13 11 12 12 11 13 12 15 16 14 17 18 17 18 16 15 16 16 17 19 20 19 17 18 19 19 20 22 23 22 22 21 22 22 22
4 4 2 3 2 1 1 2 3 1 3 3 1 2 2 5 6 7 6 6 6 5 5 6 5 5 5 4 3 4 5 6 5 4 4 5 4 3 2 1 1 2 1 1 1 2 1 4 4 3 7 7 7 11 13 12 11 10 10 14 15 13 13 11 12 11 11 14 12 14 16 13 16 18 17 17 16 16 16 16 17 19 19 18 17 18 19 20 21 22 23 23 24 23 23 23 22
3 3 2 2 3 2 1 2 3 2 2 3 1 2 1 4 7 7 6 6 6 5 5 5 4 3 4 4 4 4 4 3 4 5 7 6 5 4 3 2 3 2 1 1 1 1 1 2 4 3 6 7 6 10 13 12 11 11 10 12 13 12 13 12 11 11 11 14 14 15 17 14 16 18 17 17 16 16 15 15 17 19 19 17 16 17 19 20 21 23 23 23 24 24 24 23 24
2 3 1 3 2 3 2 1 1 1 3 2 2 2 3 2 6 7 6 7 6 4 5 5 4 3 3 4 3 3 2 2 3 2 2 3 3 3 3 4 4 3 2 2 1 1 1 0 3 5 7 7 6 8 11 11 12 12 10 11 11 10 13 13 12 12 11 15 16 16 17 15 16 18 17 16 15 16 15 15 17 18 19 17 16 18 19 20 22 24 24 23 23 24 24 23 25
1 3 2 1 2 2 2 1 1 3 3 2 3 3 5 4 6 8 7 7 7 5 5 5 4 3 3 3 3 3 2 1 2 7 8 4 2 2 3 4 4 3 2 2 3 2 2 1 4 6 7 6 6 7 10 11 13 13 9 9 10 9 11 12 13 13 11 15 18 16 17 16 16 17 17 16 15 16 15 15 17 18 19 17 16 18 20 21 22 23 24 23 22 22 22 22 25
3 3 2 1 1 2 2 2 2 3 1 3 4 4 7 5 4 8 7 7 7 6 6 4 3 2 2 3 3 2 1 3 7 10 6 2 1 2 3 4 4 2 2 3 3 3 2 1 3 4 5 6 5 6 10 12 14 14 8 9 9 7 10 10 11 13 11 13 18 17 15 16 16 16 16 16 15 16 15 15 16 17 18 17 16 19 21 22 23 23 24 23 22 21 20 21 25
3 3 2 2 1 3 2 2 2 3 2 4 5 4 5 6 4 7 8 7 6 5 5 4 2 2 2 2 1 2 4 5 8 8 4 2 2 3 4 3 2 2 3 4 3 3 1 2 3 2 4 4 5 8 11 13 16 15 9 9 10 7 9 9 9 13 12 12 16 16 15 15 15 15 16 15 14 15 16 16 16 17 18 17 17 19 21 22 22 24 24 22 23 22 20 21 24
4 3 1 2 2 2 1 3 2 2 3 4 2 3 6 7 5 4 9 6 5 5 5 4 4 4 3 3 3 5 5 5 8 6 4 3 2 3 3 3 3 3 3 4 3 4 3 2 2 2 3 4 7 10 12 14 15 15 10 9 10 7 8 9 9 12 12 12 15 15 15 16 14 14 16 16 14 15 16 16 15 16 17 17 17 18 19 20 21 23 23 22 23 23 22 22 24
3 4 1 2 3 1 1 3 1 0 2 3 3 6 7 4 4 5 8 6 5 5 5 5 5 5 4 4 5 6 4 3 8 9 5 4 2 2 2 2 4 4 4 4 4 5 3 0 1 2 1 4 9 11 13 15 15 15 12 9 10 7 8 11 11 10 12 12 13 14 16 17 15 14 16 16 15 15 16 17 16 15 16 16 17 17 18 19 20 22 23 23 23 22 21 22 24
4 4 2 1 2 1 2 2 2 2 0 3 6 6 6 2 5 5 5 4 2 2 1 1 2 4 4 4 6 5 3 3 6 9 7 4 3 2 1 2 3 3 4 5 5 4 1 1 1 0 1 4 8 11 13 15 14 13 11 10 11 9 8 9 10 9 11 12 12 13 15 17 16 15 16 16 15 14 15 17 16 15 16 16 16 17 18 19 20 21 22 22 23 23 21 22 23
5 5 2 1 3 2 0 1 2 1 2 3 5 5 4 1 2 2 1 1 2 3 1 2 3 3 3 6 5 3 4 3 3 7 9 6 5 4 2 2 4 4 4 5 4 2 2 2 1 1 2 4 8 12 13 14 14 13 10 8 9 9 6 6 8 9 10 11 11 13 14 16 17 16 15 16 15 14 14 15 15 15 15 15 15 17 18 19 19 20 21 21 22 23 22 22 21
4 5 4 1 3 2 2 3 4 2 2 3 3 3 3 2 2 1 2 1 1 3 2 1 1 2 3 4 4 3 4 4 2 4 7 5 5 5 3 3 4 4 4 5 4 3 4 4 2 1 2 5 8 11 13 13 13 13 12 9 7 8 5 6 11 11 10 11 11 12 13 14 16 16 15 15 15 13 13 14 15 14 14 14 15 16 16 17 18 18 20 20 20 21 21 21 20
2 3 4 2 3 4 5 6 5 2 0 3 1 2 3 1 2 2 3 2 3 4 4 5 5 4 3 3 5 5 4 4 2 3 4 2 3 4 3 5 4 3 5 6 5 5 5 4 1 1 3 5 8 11 13 12 11 11 11 10 8 8 7 8 11 10 11 12 11 12 12 12 15 16 16 15 14 13 13 13 14 14 14 14 14 14 15 16 17 17 17 17 18 19 19 20 20
1 2 3 4 3 4 5 6 4 1 1 3 2 3 2 3 1 2 2 2 4 5 4 4 6 6 5 5 5 6 5 4 3 3 4 4 3 3 4 6 5 4 7 7 5 6 5 4 2 2 3 5 8 10 13 13 11 10 9 8 7 6 7 8 9 9 10 11 11 11 11 10 12 15 15 15 15 13 13 13 14 14 15 15 13 14 15 16 16 16 16 16 16 18 18 18 19
0 3 4 4 3 4 5 5 3 1 1 2 3 3 1 2 4 3 2 1 4 5 3 3 5 6 5 4 5 6 5 6 5 5 5 5 4 3 3 5 6 7 8 6 5 5 5 4 3 3 3 5 7 10 12 13 12 11 8 7 5 5 6 7 8 8 9 10 10 11 10 9 10 13 14 15 15 14 12 13 14 14 15 15 13 14 15 15 15 15 15 15 16 17 17 16 17
0 2 3 3 3 3 4 4 4 1 2 2 5 4 2 2 4 2 2 1 3 5 6 5 4 6 5 4 5 5 5 6 4 3 3 4 4 4 4 6 7 8 7 5 5 6 5 4 3 3 3 4 6 9 11 12 12 10 8 7 6 5 6 5 6 7 9 10 10 10 10 9 9 11 13 13 14 14 12 13 14 14 14 14 13 14 14 14 15 15 15 15 16 17 16 15 16
1 2 2 2 3 3 2 3 4 2 3 2 4 4 1 2 3 2 2 1 2 3 5 5 4 6 5 4 5 5 5 5 4 3 2 3 4 5 6 7 7 6 6 6 6 7 6 5 4 2 2 4 5 8 10 11 11 9 8 7 6 6 7 6 6 7 10 11 10 10 10 9 9 10 11 11 12 14 12 12 13 13 13 13 13 14 14 15 15 14 14 14 15 16 15 14 14
1 2 2 1 2 2 2 2 2 2 1 2 2 3 2 0 3 3 2 2 4 3 4 5 5 6 5 5 5 4 4 4 5 5 5 5 6 6 6 7 8 7 7 7 7 7 5 5 4 3 3 3 5 7 9 10 10 9 8 7 6 6 7 7 7 8 11 11 10 10 9 8 9 9 11 10 10 13 11 11 12 12 12 12 13 14 14 15 15 14 13 13 14 15 14 14 14
1 2 1 1 1 1 0 1 2 2 2 3 1 2 3 1 5 3 3 4 5 4 3 4 5 6 6 5 5 5 4 2 2 3 4 5 7 9 7 8 9 7 7 8 8 7 6 6 5 4 3 3 4 6 8 9 9 9 8 7 5 5 6 7 7 8 11 11 9 10 9 9 8 8 10 10 10 12 11 11 12 12 13 14 13 14 14 14 14 14 13 12 14 15 14 14 14
1 2 2 3 1 1 2 2 1 1 3 3 3 1 0 3 5 4 6 6 5 4 3 3 3 4 5 6 6 5 4 2 1 1 1 2 6 9 10 11 11 8 7 9 8 8 8 7 6 5 4 3 3 5 7 8 8 8 7 6 5 4 5 6 6 7 10 10 9 9 9 9 9 9 10 11 11 11 11 12 12 12 13 14 14 14 14 14 14 13 12 13 15 14 13 14 13
2 2 2 2 1 2 2 2 2 1 2 1 2 0 1 3 3 4 7 6 6 6 4 3 2 1 2 5 5 4 4 4 3 2 2 3 4 7 9 11 12 9 8 9 9 9 9 8 8 7 5 4 3 4 6 7 8 8 7 6 5 4 4 5 5 7 9 9 8 8 8 9 9 9 9 10 11 10 10 11 12 12 13 14 15 15 14 14 14 13 12 14 15 14 13 14 13
3 1 2 1 2 2 1 1 1 3 4 2 1 0 2 2 2 3 6 6 7 6 5 4 2 2 1 2 2 2 4 5 5 4 5 5 5 6 7 9 10 10 9 10 10 10 9 9 9 9 7 5 3 3 5 6 7 7 7 6 5 4 3 4 3 7 9 9 8 8 7 8 9 9 9 9 9 9 9 10 11 12 13 14 15 15 14 14 15 13 12 14 15 14 14 14 13
3 1 2 1 1 1 1 0 1 1 2 2 1 2 3 3 1 3 5 5 5 5 5 4 3 4 3 2 4 5 5 5 6 5 6 6 6 7 7 8 9 10 11 11 11 11 10 10 10 10 8 6 3 3 4 5 5 6 6 6 5 4 4 4 4 6 8 7 7 7 7 8 9 9 9 9 8 8 9 10 11 12 13 14 14 15 14 15 15 14 12 14 15 14 14 14 13
2 2 1 1 2 3 2 1 1 2 1 2 2 2 2 1 2 1 3 4 5 5 6 5 5 6 5 5 5 6 6 5 6 6 6 7 8 8 8 8 9 10 11 12 11 11 11 11 11 11 9 7 5 3 3 4 5 6 6 5 4 4 4 4 5 6 7 7 6 7 7 7 8 9 9 8 8 8 9 10 11 12 12 13 14 14 14 14 14 13 13 14 15 14 14 14 14
1 1 2 1 2 2 1 1 2 2 2 3 1 1 2 1 2 2 2 4 6 6 6 6 6 6 6 6 6 6 6 6 6 6 6 7 8 9 9 9 9 10 11 11 11 11 11 11 12 12 10 8 6 4 3 4 5 5 5 5 4 4 4 4 5 7 7 7 6 7 7 7 8 8 9 8 8 8 9 10 11 11 12 12 13 14 14 14 14 13 12 13 13 13 14 14 14
2 1 2 1 2 0 0 1 1 1 3 4 2 2 2 4 4 3 4 6 7 7 7 6 6 6 6 6 6 6 5 6 5 5 7 8 9 10 10 10 10 10 10 11 12 12 12 12 12 12 11 9 7 5 4 3 4 5 4 4 4 4 4 4 5 6 7 7 7 7 7 7 8 8 8 8 9 9 9 10 11 11 12 12 12 13 13 13 13 12 13 14 13 12 13 14 14
2 2 2 1 2 2 1 1 1 1 1 4 4 4 3 4 5 6 7 8 8 7 7 7 7 5 5 4 5 6 5 6 6 5 7 10 10 11 11 11 11 10 10 12 13 13 13 13 13 13 12 10 8 7 5 4 4 4 4 4 4 4 4 4 5 6 7 7 7 7 7 7 7 7 8 8 8 9 9 10 11 12 12 12 13 14 14 14 13 12 13 13 12 12 13 13 14
0 1 1 0 1 1 0 0 1 1 1 2 3 5 5 4 3 7 8 6 7 8 7 7 7 5 4 4 6 5 5 6 6 6 8 10 11 11 12 12 11 11 11 13 13 13 13 14 15 15 13 11 10 8 6 5 5 5 4 4 4 4 4 4 5 5 6 7 7 7 7 7 7 7 7 8 8 8 9 10 11 11 12 12 13 14 15 14 13 12 13 13 12 12 13 13 14
0 1 2 2 1 2 1 1 2 0 1 2 1 4 7 5 2 3 7 7 7 8 7 6 6 6 5 5 6 7 6 5 5 6 9 11 11 12 12 13 13 13 13 14 13 13 15 15 16 16 14 13 11 9 7 6 5 5 5 4 4 4 4 4 4 5 6 6 7 7 7 7 7 6 6 7 7 8 8 9 10 11 11 12 13 14 15 14 13 13 13 13 13 13 13 14 14
Wind_Direction
89 84 247 302 297 296 293 252 92 55 75 72 63 72 63 47 57 74 85 121 87 51 59 66 33 33 78 96 109 100 48 43 31 348 63 188 227 19 2 350 345 339 354 2 6 6 355 6 13 10 10 10 11 13 16 18 19 22 22 22 23 23 22 21 21 19 18 17 19 19 16 17 17 16 15 14 13 14 9 9 11 9 10 9 8 7 8 5 3 5 4 2 1 2 4 6 7
44 315 291 288 272 267 288 244 105 94 80 73 59 59 78 66 59 59 62 71 66 76 75 66 75 65 91 119 133 111 62 58 76 97 131 192 188 79 1 343 332 334 357 9 9 354 349 4 11 9 9 9 12 14 18 19 20 21 20 22 21 21 21 20 20 18 17 16 17 17 16 14 15 15 14 13 12 12 10 7 7 6 6 7 7 6 6 5 2 3 3 359 356 357 359 1 360
44 285 293 289 261 262 341 4 70 93 79 77 67 58 73 70 70 68 66 72 73 95 107 118 98 31 105 132 105 70 77 73 74 106 126 152 154 66 13 344 326 329 3 9 5 350 351 4 8 9 8 9 12 16 19 20 21 21 20 21 20 20 20 19 19 17 16 15 16 16 14 14 15 14 12 12 11 10 10 7 5 4 4 3 3 3 4 3 1 0 0 358 356 355 355 356 353
22 289 292 291 273 17 13 29 36 66 84 99 90 71 73 79 84 81 81 84 92 106 68 127 89 17 64 85 25 74 88 91 59 41 100 80 57 40 0 340 334 343 10 1 358 349 351 0 7 10 8 10 13 17 20 20 22 21 20 20 20 20 19 19 17 16 16 14 15 14 14 14 14 13 12 10 10 8 7 7 4 2 2 1 359 359 358 357 357 356 356 355 354 353 351 350 348
333 350 328 306 306 47 48 55 37 57 68 93 104 91 85 95 97 94 98 101 108 49 37 80 96 62 72 49 349 80 67 114 86 36 70 72 44 22 355 350 348 356 6 356 355 348 347 355 5 11 9 11 14 18 19 20 21 20 20 19 19 19 18 18 16 16 15 15 14 14 13 13 13 11 11 10 9 7 5 4 2 1 358 358 356 354 353 353 353 352 352 351 350 350 348 347 345
312 73 61 48 40 26 72 71 61 64 59 81 106 104 86 93 104 107 109 108 96 65 34 39 80 101 86 58 43 56 22 44 84 41 46 56 29 9 356 351 350 358 2 357 357 349 347 353 1 10 11 13 16 18 18 18 19 17 17 17 17 16 16 16 15 15 14 14 13 13 12 12 11 9 10 9 8 6 4 3 1 0 357 356 354 352 351 349 350 349 349 348 347 347 346 344 342
304 67 69 66 47 26 76 75 71 68 55 69 92 103 94 94 111 119 113 113 105 85 68 50 88 102 105 125 69 59 47 44 68 50 36 36 15 1 353 350 353 358 357 358 2 352 346 352 0 11 14 17 19 19 18 17 15 15 14 13 14 13 13 13 13 13 13 12 11 10 10 9 8 8 8 7 6 5 4 2 1 360 358 356 354 352 350 348 348 348 347 346 344 345 344 342 340
300 48 70 74 67 53 74 75 71 72 58 56 65 80 85 84 67 80 78 70 89 63 52 58 59 92 103 114 85 77 66 61 69 60 44 30 6 355 350 352 356 357 359 5 4 350 341 349 358 7 15 19 20 20 19 17 14 12 11 10 11 11 11 11 10 10 10 9 8 7 5 6 6 6 6 6 5 4 3 2 0 359 357 356 354 352 350 347 346 346 345 344 343 343 342 341 340
186 96 100 77 84 85 77 85 77 79 78 67 68 69 73 73 28 56 74 67 70 57 37 22 20 82 99 82 88 103 75 65 68 60 47 20 6 0 351 354 3 4 4 6 2 354 347 348 356 2 8 14 16 18 18 16 14 10 9 9 8 9 8 8 8 7 7 6 5 4 2 2 3 5 5 4 4 2 1 0 359 357 356 354 353 352 350 347 346 345 344 343 342 342 341 340 339
113 36 114 86 88 96 85 93 87 89 82 77 77 66 67 64 47 55 74 71 52 69 45 357 26 79 91 83 92 100 75 67 70 57 34 3 2 7 356 358 11 10 4 6 5 2 355 351 358 2 3 7 8 7 10 12 11 9 7 8 8 8 8 7 7 5 5 5 5 3 1 1 1 3 3 4 2 359 357 357 357 356 355 353 352 352 350 348 347 346 344 342 342 341 341 340 340
99 27 121 97 83 93 93 101 97 104 95 90 76 56 47 43 66 68 76 83 57 67 36 346 32 61 86 90 85 112 93 73 61 44 20 357 1 9 359 357 9 11 2 9 7 2 3 358 360 2 5 7 3 355 358 5 5 7 7 8 9 8 8 6 5 6 5 5 5 2 0 0 0 359 357 0 360 356 354 353 355 357 356 354 353 353 351 350 349 349 347 345 344 343 343 341 341
94 57 74 84 79 94 104 111 106 112 111 99 79 55 22 24 61 70 75 80 66 73 37 5 17 351 81 94 109 127 95 66 54 28 10 358 4 5 360 358 7 12 1 11 11 5 9 6 0 358 5 7 2 357 356 356 355 0 5 8 8 8 8 6 7 8 7 6 3 0 358 358 359 357 352 354 355 354 353 352 354 356 356 355 354 354 353 352 351 351 350 349 348 346 345 344 343
71 74 86 90 86 103 102 105 119 119 105 83 83 63 20 36 49 40 59 66 49 64 40 7 359 345 66 99 120 117 81 59 44 20 8 354 354 343 356 357 350 14 11 11 8 8 8 5 3 355 0 2 358 359 356 349 348 354 0 4 3 5 5 5 8 9 8 5 1 360 357 357 357 355 353 352 352 353 353 352 353 354 354 355 354 354 353 353 353 352 351 351 351 350 349 347 348
49 81 93 104 95 104 111 121 133 119 90 84 94 77 47 47 49 25 30 63 52 50 37 9 355 339 55 100 115 87 66 54 30 14 3 345 340 300 334 349 290 40 24 17 4 6 9 3 6 2 358 358 355 356 355 350 350 353 356 359 357 0 5 6 7 6 6 4 2 1 358 358 354 354 356 348 349 352 353 351 352 353 353 354 354 354 354 353 354 352 352 352 352 351 350 351 352
54 94 78 101 109 104 119 120 109 101 105 105 94 89 79 49 32 44 29 51 72 48 19 31 11 331 32 56 80 60 58 47 16 353 343 330 329 279 295 1 85 68 26 25 20 9 8 7 6 6 358 355 357 358 358 356 356 355 356 360 357 358 4 6 3 1 2 0 2 3 1 357 348 356 357 341 348 353 353 352 352 353 353 354 354 354 354 353 354 352 352 352 351 352 351 353 354
37 103 88 93 96 92 102 106 108 104 108 108 103 109 100 64 23 61 25 27 98 64 23 40 28 27 55 61 81 68 54 31 5 350 353 347 350 349 25 36 51 45 27 35 39 18 8 10 4 3 354 353 1 3 0 358 358 357 360 1 358 357 359 2 359 359 358 353 359 3 1 355 346 357 355 339 350 355 352 354 352 354 354 354 354 354 355 353 354 353 352 352 352 353 352 354 355
342 76 84 82 72 66 52 73 108 113 112 115 131 133 99 91 54 73 272 40 94 83 61 63 53 57 73 79 87 73 50 30 13 6 22 17 12 29 40 38 37 32 29 32 34 20 10 8 4 359 350 353 3 4 359 355 358 3 2 356 357 357 356 358 356 357 353 345 354 0 359 357 351 357 353 343 353 356 354 355 353 355 355 355 355 355 356 354 354 354 353 354 353 353 353 356 355
23 72 73 75 63 52 44 61 86 107 118 123 140 136 97 112 104 114 220 91 99 104 94 94 76 73 87 90 93 76 44 43 27 20 36 27 20 34 35 36 38 32 26 19 17 18 13 3 0 358 352 354 360 2 0 353 359 8 0 352 359 358 354 358 355 354 351 343 349 356 358 0 358 356 353 349 354 356 355 355 355 357 356 356 356 356 356 354 354 355 355 355 355 354 353 356 355
44 73 75 72 64 57 55 74 92 101 114 120 111 58 86 98 102 168 202 121 140 125 121 140 114 112 117 108 100 81 41 57 46 31 41 34 26 32 34 34 37 32 19 12 16 19 14 3 358 359 358 358 358 1 2 353 358 9 358 354 1 357 355 359 355 353 351 345 347 352 359 2 1 358 352 353 357 357 357 356 358 357 357 358 357 358 358 356 356 356 356 355 355 355 355 355 353
44 70 85 80 78 70 58 69 83 95 108 110 94 62 82 69 46 198 170 144 174 114 116 158 134 136 132 131 122 98 47 83 86 63 52 41 30 29 35 33 38 31 14 17 20 18 15 5 357 0 3 1 359 0 3 358 359 7 359 358 1 354 359 360 354 355 351 346 345 351 2 3 2 359 350 357 2 359 357 359 3 359 359 1 358 0 359 358 360 358 357 356 356 357 356 354 353
57 61 90 92 86 78 59 67 77 88 97 99 109 96 88 72 19 298 350 131 160 79 76 69 102 115 123 133 120 92 41 77 85 72 59 47 32 29 36 30 47 30 10 25 18 14 15 4 360 5 7 3 2 2 4 3 0 1 359 3 360 354 2 357 352 356 352 346 344 353 5 2 2 1 352 0 5 0 358 360 4 0 0 2 359 360 358 359 2 360 358 355 356 357 355 355 355
78 61 81 89 82 83 64 59 64 81 97 102 109 97 96 127 120 5 357 54 58 58 74 68 78 84 83 93 88 63 320 82 78 71 60 57 33 25 26 16 41 18 356 32 19 14 12 5 7 9 8 4 3 5 6 4 1 359 358 3 356 355 2 354 353 356 351 345 343 356 8 1 3 2 354 1 5 1 359 359 2 0 0 0 358 359 356 358 2 359 356 354 356 357 356 358 355
90 72 70 77 78 89 79 51 35 69 88 77 73 94 127 180 108 56 3 73 83 66 84 90 87 80 82 84 126 252 301 53 58 73 62 65 58 29 15 0 17 352 356 30 19 16 11 8 13 8 6 6 5 5 8 3 2 359 358 4 353 354 359 353 355 352 350 345 343 0 8 359 4 1 355 1 4 2 359 359 2 359 0 358 356 358 354 357 1 357 354 354 356 358 358 359 355
86 89 75 76 79 84 83 57 41 57 68 68 85 137 88 7 74 60 341 112 113 108 105 106 108 113 151 221 230 243 251 158 150 95 73 63 103 1 297 329 330 337 24 27 21 21 11 12 15 11 3 6 11 2 3 3 0 357 358 7 354 353 359 355 355 348 353 346 342 4 8 0 7 359 356 0 3 4 357 358 1 359 0 357 354 357 354 356 359 355 352 351 355 356 356 356 353
72 94 92 87 85 86 88 79 69 70 74 75 196 114 68 31 44 275 184 131 137 137 135 141 150 193 211 233 241 246 243 199 176 166 200 191 127 306 269 272 320 5 32 25 29 19 8 13 12 17 1 5 18 360 0 4 359 358 0 8 351 353 2 354 353 347 356 348 343 5 8 3 9 359 359 1 3 4 355 356 358 357 358 353 354 356 353 353 355 352 348 348 352 352 352 352 350
81 99 103 99 95 97 94 87 81 83 80 3 288 114 120 105 48 251 178 139 143 143 158 174 179 217 221 226 233 233 252 233 183 198 202 187 219 249 244 1 354 20 25 24 31 14 15 22 10 19 0 4 22 4 5 4 359 3 4 5 347 354 2 348 352 351 358 353 345 2 9 6 8 0 1 1 5 3 353 355 355 354 354 351 356 357 351 352 352 349 345 346 350 348 348 349 347
111 102 101 99 99 103 98 94 86 96 90 355 336 55 148 135 162 238 152 137 147 159 189 187 187 224 232 222 220 214 239 258 210 183 213 240 234 216 49 17 16 20 21 32 22 10 25 24 14 22 360 5 20 12 11 4 0 6 4 1 347 355 359 345 354 354 359 360 346 357 9 9 5 3 4 2 5 1 352 354 353 351 349 351 1 357 349 352 351 345 344 346 348 346 346 347 345
117 112 102 99 109 107 98 96 80 157 99 7 353 331 244 144 221 202 141 144 157 183 205 190 194 217 237 229 209 206 224 232 194 176 224 253 254 53 21 10 14 15 22 20 8 16 21 12 19 21 358 3 16 18 15 5 3 6 2 356 350 356 356 348 357 358 1 4 348 352 7 10 2 5 6 5 6 359 353 352 353 350 345 353 4 355 348 351 348 343 346 348 347 345 345 346 345
131 128 107 117 126 97 78 96 75 288 43 26 43 342 255 187 214 141 132 148 164 197 223 216 215 209 228 229 198 219 224 200 177 194 222 240 254 1 355 357 358 3 13 0 15 33 8 14 24 7 1 3 12 20 16 10 7 3 357 351 352 359 1 355 358 2 360 1 354 349 4 12 359 3 5 5 8 359 354 352 352 349 346 357 3 353 349 350 346 343 348 350 348 348 347 347 347
152 138 122 146 133 76 48 95 321 280 140 227 111 57 192 191 178 131 137 161 167 197 226 227 226 206 205 199 194 239 236 199 198 216 218 220 226 230 238 316 340 322 343 334 31 36 357 21 35 3 7 9 8 16 16 15 9 358 350 349 354 1 8 5 357 4 357 358 1 348 4 14 356 3 3 2 9 360 354 353 351 347 349 2 2 353 351 350 348 347 351 351 349 351 349 349 348
148 126 161 170 123 65 54 48 325 317 168 219 208 50 104 160 152 140 157 168 170 201 225 227 218 195 181 182 192 229 247 223 204 215 222 228 225 222 226 240 274 278 332 282 295 47 347 10 44 18 12 23 7 11 17 14 6 358 348 347 356 1 7 11 359 1 355 355 1 351 8 15 354 2 4 0 7 360 355 354 350 349 354 4 1 354 353 352 351 352 355 353 351 352 350 351 349
158 116 318 355 92 153 104 49 4 27 203 214 210 333 31 136 150 157 168 170 179 209 238 249 231 198 178 188 199 211 251 238 202 222 233 232 217 210 212 223 245 242 215 234 290 70 227 350 43 32 17 32 11 9 18 12 5 0 348 345 356 359 1 8 3 0 352 355 3 0 12 14 355 2 4 3 6 359 358 356 350 352 358 4 2 355 355 355 353 355 358 357 353 352 351 351 348
186 107 14 351 83 162 180 65 37 342 271 209 176 301 332 148 157 159 169 172 180 206 236 253 242 221 195 190 201 203 224 246 239 221 161 149 151 180 201 216 225 219 221 192 145 113 142 307 16 28 31 33 18 13 13 11 7 0 351 346 350 353 354 356 1 3 352 356 7 8 13 10 358 3 5 7 7 0 2 357 351 355 360 5 3 357 358 359 357 357 358 0 358 352 350 351 348
30 76 118 320 21 147 165 118 333 292 260 214 181 221 275 255 166 163 180 178 177 197 223 242 232 209 189 178 198 204 189 224 77 81 89 97 115 174 201 216 220 220 230 180 157 154 157 241 353 32 46 37 26 12 6 11 9 5 2 349 346 349 352 346 351 3 354 355 9 12 10 5 1 4 4 8 9 3 4 358 354 357 360 6 6 359 360 1 360 359 357 0 1 355 353 353 349
24 41 112 146 57 85 79 116 5 334 282 258 240 225 268 286 159 166 184 181 179 197 210 229 235 194 176 184 202 190 113 64 82 87 87 78 92 168 199 230 235 215 183 164 166 161 174 329 28 46 43 39 33 4 4 12 9 15 17 355 355 349 354 351 342 357 356 350 5 13 8 1 4 6 3 9 11 6 6 0 358 359 359 7 9 1 1 1 0 360 359 0 1 1 2 357 351
346 342 48 43 105 90 57 100 61 352 327 273 256 263 297 302 254 184 174 178 184 203 206 206 214 192 188 183 161 94 75 72 88 86 70 97 135 155 174 216 214 189 162 167 173 149 144 70 78 41 24 26 21 8 10 13 10 19 23 2 9 352 352 2 337 350 1 351 357 8 6 0 6 7 2 10 12 5 6 3 3 2 1 9 11 4 0 1 0 359 0 2 1 4 6 1 355
296 297 67 42 29 94 108 91 93 337 324 263 232 312 299 289 282 169 151 163 182 210 210 202 208 188 167 134 92 74 70 93 107 92 63 99 148 160 175 196 175 179 168 167 171 153 153 113 93 46 36 346 5 18 12 14 11 14 20 7 12 355 339 356 345 352 5 356 352 359 2 3 9 8 4 10 11 6 4 4 7 4 4 11 12 5 359 0 2 0 1 4 4 3 3 2 359
301 320 71 78 41 53 76 79 151 48 338 280 23 342 297 316 12 100 132 159 187 210 206 208 206 161 137 122 99 80 67 99 117 114 98 105 142 160 178 186 167 185 176 163 173 179 190 109 110 74 48 328 3 19 12 16 13 9 11 358 5 358 327 348 2 2 0 355 352 353 357 5 11 7 6 9 10 8 3 3 9 7 7 12 11 4 0 1 3 3 4 4 3 2 2 2 4
1 343 356 53 17 343 30 72 190 139 294 295 9 345 296 11 53 89 123 168 167 131 132 150 140 122 113 98 88 85 79 75 109 123 127 129 146 144 143 165 165 180 167 166 191 206 217 91 136 53 352 337 4 15 13 17 15 8 0 342 350 352 337 359 14 4 353 352 353 349 351 3 10 9 8 8 9 11 5 3 10 13 11 14 10 2 1 3 2 3 6 4 360 359 1 3 7
28 6 32 24 1 29 67 287 258 185 183 267 333 319 279 92 65 54 107 180 104 93 65 46 84 105 89 84 89 101 106 92 93 122 135 146 157 156 159 177 176 177 169 178 202 196 153 173 195 300 333 346 6 14 15 15 13 11 6 352 346 347 354 14 3 350 348 350 351 348 349 356 4 9 8 8 12 13 9 6 12 17 15 16 12 2 1 3 2 2 5 7 2 357 357 360 6
39 17 45 33 349 9 245 293 312 289 194 239 290 318 276 168 118 215 190 195 203 172 174 199 195 145 90 96 126 122 100 107 105 112 126 137 147 151 156 173 183 187 182 188 192 171 178 205 232 268 309 347 8 15 17 15 8 7 15 22 11 360 359 345 342 345 348 348 349 350 350 348 355 5 7 9 15 15 13 11 14 19 16 18 15 2 359 1 2 3 3 7 6 360 354 354 1
56 9 14 354 337 327 297 309 323 340 291 271 14 43 281 239 119 164 170 190 196 172 184 205 195 158 148 182 160 138 121 125 117 100 115 133 145 155 177 185 192 188 182 190 186 177 196 215 222 260 301 348 7 13 18 18 7 6 16 20 14 7 358 338 339 345 342 344 349 349 350 343 345 357 3 10 16 17 19 16 15 20 17 19 15 359 358 1 1 2 1 4 4 1 357 354 358
28 299 324 330 324 308 305 318 333 59 230 282 47 99 233 290 278 168 173 205 160 163 204 197 162 150 175 198 154 141 153 148 147 155 164 179 168 172 187 178 180 180 182 192 187 186 206 217 202 238 294 343 6 10 14 15 10 14 19 15 12 1 353 342 337 341 337 340 347 345 349 348 341 348 356 6 14 16 21 17 15 19 19 19 10 356 358 1 360 358 358 4 3 359 359 358 356
247 263 295 315 316 309 324 332 314 277 251 310 16 74 143 280 258 205 208 216 137 147 154 113 132 148 162 161 124 130 147 143 163 183 177 171 167 180 166 150 165 180 187 194 191 195 210 212 209 237 290 341 8 8 10 12 11 17 14 12 22 359 348 343 336 341 337 337 346 344 351 353 342 344 349 357 5 10 19 15 12 18 18 14 4 357 0 357 357 355 356 5 3 358 360 358 354
137 257 287 314 330 325 332 326 288 317 66 325 333 16 81 262 262 243 249 186 117 121 118 103 122 137 135 126 122 140 145 139 161 188 174 166 170 181 163 155 172 184 191 195 189 198 210 212 217 241 291 337 5 6 8 10 11 16 6 5 23 5 355 355 345 343 334 340 352 348 352 354 343 344 346 351 356 2 17 10 8 17 13 6 358 358 2 357 356 356 354 0 358 355 359 357 353
212 274 287 301 316 304 294 300 292 9 66 262 315 4 49 273 261 231 265 218 131 113 126 128 129 132 135 123 126 146 140 142 170 196 204 195 180 180 175 172 181 188 188 187 190 203 217 217 217 231 277 331 0 5 7 7 9 14 6 8 19 6 5 5 357 345 337 348 357 348 353 354 347 345 343 349 349 355 13 8 5 16 7 358 357 360 3 359 359 358 354 358 356 351 355 357 353
245 276 269 257 281 261 227 258 293 28 19 240 305 12 80 325 266 219 197 171 148 134 132 138 147 153 152 139 136 138 126 143 178 194 209 208 187 187 186 178 183 191 186 188 198 206 211 209 207 219 260 320 350 2 5 4 6 8 8 16 15 4 3 359 357 346 339 352 355 345 351 352 351 346 338 345 346 351 9 8 6 15 6 359 360 1 2 359 359 358 354 357 357 351 350 352 350
324 283 289 34 320 301 333 316 35 56 279 233 167 30 82 140 266 236 154 141 135 137 137 140 163 171 161 151 141 124 111 121 171 196 218 205 180 180 183 178 184 195 191 192 202 202 199 200 203 214 244 300 338 357 1 1 3 2 5 15 15 3 355 352 360 344 336 348 348 340 346 347 350 345 335 342 348 352 6 8 7 13 8 3 1 1 0 360 357 353 351 356 355 351 348 349 347
320 316 0 31 7 13 13 330 27 86 254 212 139 52 59 216 236 184 147 150 146 137 123 114 142 164 156 151 142 128 125 133 169 190 230 220 190 184 183 182 187 198 197 196 204 201 195 196 202 214 230 268 324 350 352 355 358 356 360 9 14 9 350 349 354 335 332 344 341 336 342 345 347 341 335 341 346 353 4 5 7 11 8 3 1 0 0 2 355 348 354 358 350 346 346 347 345
340 358 36 33 44 36 340 318 350 294 268 232 165 179 287 269 251 165 146 149 143 133 134 134 150 177 152 142 136 136 153 165 167 173 202 225 217 197 187 183 188 197 199 199 204 203 197 193 196 208 221 247 298 338 347 349 348 348 355 1 11 16 350 347 346 327 331 340 336 336 341 339 338 335 335 338 342 352 1 3 6 9 7 2 0 359 358 359 353 349 359 353 343 344 344 343 342
299 176 118 84 83 84 277 317 333 282 298 312 314 312 180 238 271 152 132 132 132 132 142 144 171 212 124 113 139 175 207 189 164 178 210 216 216 208 194 185 187 192 195 200 203 204 203 195 194 206 218 232 268 315 337 342 338 338 345 352 4 12 354 354 342 319 327 337 336 338 342 336 332 335 337 336 339 348 355 0 5 8 6 1 358 357 355 355 351 353 359 347 340 343 342 342 342
286 106 92 73 136 145 172 170 203 233 335 322 279 251 196 176 51 80 99 123 143 147 149 150 214 212 174 207 225 219 216 185 160 183 207 205 204 208 203 194 191 190 193 201 205 206 207 198 196 209 219 224 243 286 321 331 328 327 335 346 358 2 355 353 337 320 329 339 338 339 342 335 333 334 334 335 342 346 349 356 1 5 4 358 355 354 351 350 349 352 352 344 341 341 339 341 341
319 31 46 238 163 133 114 11 321 96 18 286 252 285 290 27 11 29 112 153 166 163 165 180 213 198 176 209 230 225 212 174 162 186 199 196 194 202 209 203 198 197 197 203 209 210 210 203 199 205 212 217 230 258 295 317 322 321 327 339 349 349 348 344 337 333 335 339 339 338 335 329 328 329 331 338 343 342 346 351 354 359 0 355 351 349 346 344 344 347 347 341 338 337 338 341 339
78 70 251 237 103 107 121 18 343 14 309 276 184 279 288 331 312 286 178 183 188 186 186 192 201 185 185 217 224 216 195 160 162 184 192 194 190 195 205 205 204 205 204 206 209 210 209 207 207 210 213 217 223 241 275 305 314 314 318 326 336 339 336 337 336 334 335 337 339 336 331 329 331 332 335 339 338 338 344 346 348 354 355 352 348 344 341 340 339 342 341 335 333 335 338 341 339
160 196 249 100 95 79 266 98 0 355 305 287 292 311 271 208 218 225 206 209 206 196 183 184 202 196 194 216 210 188 162 152 171 184 187 194 193 194 199 203 207 207 204 206 206 206 206 207 211 215 218 220 223 236 260 281 294 302 308 311 316 323 324 331 335 332 333 334 334 333 332 335 337 334 334 337 337 338 340 341 345 350 350 349 346 341 339 339 338 338 333 332 337 341 341 339 338
285 348 358 63 122 161 212 168 183 180 274 297 310 327 300 233 207 180 190 205 197 186 177 187 207 196 178 187 183 172 166 173 187 185 185 192 192 192 194 199 208 207 203 206 207 207 207 206 208 212 215 219 222 233 251 264 279 292 297 299 305 313 319 324 330 333 331 329 330 330 331 335 335 333 336 338 337 338 340 342 344 347 349 347 343 341 340 339 337 333 330 334 340 342 339 336 335
298 63 80 25 91 119 179 199 163 157 199 290 307 301 277 257 208 160 164 176 173 168 171 190 193 170 166 174 166 172 186 189 190 187 189 191 190 192 194 197 204 205 204 209 212 213 211 208 210 213 216 220 223 230 244 258 269 279 284 288 295 302 308 314 324 329 327 327 329 326 326 331 329 329 334 336 339 341 341 342 344 347 350 345 340 339 337 336 335 331 331 337 341 339 336 333 333
311 149 154 150 128 102 67 320 302 83 157 196 262 288 271 270 299 138 148 153 161 161 165 180 181 171 182 185 170 175 190 198 199 195 192 191 190 192 196 199 202 203 205 210 214 214 214 214 215 217 220 223 227 231 239 251 260 266 273 276 280 288 294 301 314 320 320 325 326 321 321 323 324 327 331 334 339 342 340 342 347 351 350 343 338 335 333 333 333 330 333 338 339 338 335 332 331